Skip Page Navigation
NASA JPL Caltech
NASA Logo - Jet Propulsion Laboratory + View the NASA Portal
+ Near-Earth Object (NEO) Program
Search JPL
JPL Home Earth Solar System Stars & Galaxies Technology
JPL Solar System Dynamics
BODIES ORBITS EPHEMERIDES TOOLS PHYSICAL DATA DISCOVERY FAQ SITE MAP
JPL Small-Body Database Browser
Search: [ help ]  
143649 (2003 QQ47)
Classification: Apollo [NEO, PHA]          SPK-ID: 2143649
Ephemeris | Orbit Diagram | Orbital Elements | Physical Parameters | Discovery Circumstances | Close-Approach Data ]

[ hide orbit diagram ]
Orbit Diagram
Note: Make sure you have Java enabled on your browser to see the applet. This applet is provided as a 3D orbit visualization tool. The applet was implemented using 2-body methods, and hence should not be used for determining accurate long-term trajectories (over several years or decades) or planetary encounter circumstances. For accurate long-term ephemerides, please instead use our Horizons system.
Orbit Viewer

Additional Notes: the orbits shown in the applet are color coded. The planets are white lines, and the asteroid/comet is a blue line. The bright white line indicates the portion of the orbit that is above the ecliptic plane, and the darker portion is below the ecliptic plane. Likewise for the asteroid/comet orbit, the light blue indicates the portion above the ecliptic plane, and the dark blue the portion below the ecliptic plane.

Orbit Viewer applet originally written and kindly provided by Osamu Ajiki (AstroArts), and further modified by Ron Baalke (JPL).


Orbital Elements at Epoch 2456400.5 (2013-Apr-18.0) TDB
Reference: JPL 56 (heliocentric ecliptic J2000)
 Element Value Uncertainty (1-sigma)   Units 
e .1869879725605941 1.0151e-07  
a 1.085290225048637 4.7207e-09 AU
q .8823540062269615 1.1055e-07 AU
i 62.10047291180064 2.984e-05 deg
node 1.003093043540011 9.1012e-06 deg
peri 104.9851802723909 3.0712e-05 deg
M 113.1046183361797 2.9781e-05 deg
tp 2456270.753664146659
(2012-Dec-09.25366415)
3.3944e-05 JED
period 412.968821205613
1.13
2.6944e-06
7.377e-09
d
yr
n .8717365125750248 5.6877e-09 deg/d
Q 1.288226443870312 5.6034e-09 AU
  Orbit Determination Parameters
   # obs. used (total)      287  
   data-arc span      3324 days (9.10 yr)  
   first obs. used      2003-08-24  
   last obs. used      2012-09-29  
   planetary ephem.      DE405  
   SB-pert. ephem.      SB405-CPV-2  
   condition code      0  
   fit RMS      .51465  
   data source      ORB  
   producer      Otto Matic  
   solution date      2013-Apr-29 15:39:08  

Additional Information
 Earth MOID = .00252251 AU 
 T_jup = 5.214 
[ show covariance matrix ]

Ephemeris | Orbit Diagram | Orbital Elements | Physical Parameters | Discovery Circumstances | Close-Approach Data ]

Physical Parameter Table
Parameter Symbol Value Units Sigma Reference Notes
absolute magnitude H 17.299 mag .52913 56 autocmod 2.5c

143649 (2003 QQ47)          Discovered 2003-Aug-24 by LINEAR at Socorro (704)
Reference: 20061205/Numbers.arcLast Updated: 2006-12-13

[ show close-approach data ]
Ephemeris | Orbit Diagram | Orbital Elements | Physical Parameters | Discovery Circumstances | Close-Approach Data ]
ABOUT SSD CREDITS/AWARDS PRIVACY/COPYRIGHT GLOSSARY LINKS
FirstGov 2013-May-25 21:12 UT
(server date/time)  
NASA Home Page
Site Manager:   Donald K. Yeomans
Webmaster  Alan B. Chamberlin